This is the latest recevied weather packets stored in our database for station/object OK1JIL-13. If no packets are shown the sender has not sent any weather packets the latest 10 day(s).
| Time | Temp. | Humidity | Pressure | Rain* | Wind** | Luminosity | Snow |
|---|---|---|---|---|---|---|---|
| 1777584797 | 9.44° C | 43% | 1029.3 hPa | - | - | - | - |
| 1777584197 | 7.78° C | 46% | 1029.3 hPa | - | - | - | - |
| 1777583597 | 8.33° C | 45% | 1029.3 hPa | - | - | - | - |
| 1777582997 | 8.33° C | 45% | 1029.3 hPa | - | - | - | - |
| 1777582397 | 9.44° C | 43% | 1029.4 hPa | - | - | - | - |
| 1777581799 | 8.89° C | 44% | 1029.3 hPa | - | - | - | - |
| 1777581195 | 8.89° C | 43% | 1029.1 hPa | - | - | - | - |
| 1777580595 | 7.78° C | 46% | 1029.1 hPa | - | - | - | - |
| 1777579995 | 7.22° C | 48% | 1029 hPa | - | - | - | - |
| 1777579395 | 7.22° C | 47% | 1029.1 hPa | - | - | - | - |
| 1777578795 | 7.78° C | 45% | 1029.1 hPa | - | - | - | - |
| 1777578198 | 7.78° C | 46% | 1028.9 hPa | - | - | - | - |
| 1777577595 | 7.78° C | 45% | 1028.9 hPa | - | - | - | - |
| 1777576996 | 7.78° C | 45% | 1028.8 hPa | - | - | - | - |
| 1777576395 | 7.22° C | 46% | 1028.8 hPa | - | - | - | - |
| 1777575795 | 7.78° C | 45% | 1028.8 hPa | - | - | - | - |
| 1777575195 | 8.33° C | 44% | 1028.9 hPa | - | - | - | - |
| 1777574595 | 7.22° C | 46% | 1029 hPa | - | - | - | - |
| 1777573995 | 7.78° C | 45% | 1029 hPa | - | - | - | - |
| 1777573395 | 8.89° C | 41% | 1028.9 hPa | - | - | - | - |
| 1777572795 | 10° C | 39% | 1028.9 hPa | - | - | - | - |
| 1777572195 | 9.44° C | 40% | 1028.8 hPa | - | - | - | - |
| 1777571595 | 8.89° C | 42% | 1028.8 hPa | - | - | - | - |
| 1777570995 | 8.33° C | 43% | 1028.8 hPa | - | - | - | - |
| 1777570395 | 9.44° C | 39% | 1028.7 hPa | - | - | - | - |
* Rain since midnight (hover to see other rain measurements)
** Current wind speed in m/s (hover to see current wind gust speed)